Chapel Hill, NC

7:23 AM EDT on March 30, 2017 (GMT -0400)
Williams

Weather History for KIGX - April, 2014

Change the Weather History Date:

Saturday, April 5, 2014

  Actual Average Record
Temperature  
Mean Temperature 63 °F -  
Max Temperature 71 °F 69 °F 86 °F (1985)
Min Temperature 55 °F 44 °F 31 °F (1959)
Degree Days  
Heating Degree Days 2    
Growing Degree Days 13 (Base 50)    
Moisture  
Dew Point 37 °F    
Average Humidity 40    
Maximum Humidity 65    
Minimum Humidity 23    
Precipitation  
Precipitation 0.00 in - - ()
Sea Level Pressure  
Sea Level Pressure 29.94 in    
Wind  
Wind Speed 4 mph (NW)    
Max Wind Speed 10 mph    
Max Gust Speed 18 mph    
Visibility 10 miles    
Events      
Averages and records for this station are not official NWS values.
T = Trace of Precipitation, MM = Missing Value Source: NWS Daily Summary

Daily Weather History Graph

Daily Weather History Graph

Search for Another Location

Airport or City:

Trip Planner

Search our weather history database for the weather conditions in past years. The results will help you decide how hot, cold, wet, or windy it might be!

Date:

Astronomy

Apr. 05, 2014 Rise Set
Actual Time 6:56 AM EDT 7:41 PM EDT
Civil Twilight 6:31 AM EDT 8:07 PM EDT
Nautical Twilight 6:00 AM EDT 8:38 PM EDT
Astronomical Twilight 5:29 AM EDT 9:09 PM EDT
Moon 11:09 AM EDT (4/5) 12:43 AM EDT (4/5)
Length of Visible Light 13h 36m
Length of Day
12h 44m
Waxing Crescent, 34% of the Moon is Illuminated
Apr 5
Waxing Crescent
Apr 7
First Quarter
Apr 15
Full
Apr 22
Last Quarter
Apr 29
New

Hourly Weather History & Observations

Time (EDT) Temp. Dew Point Humidity Pressure Visibility Wind Dir Wind Speed Gust Speed Precip Events Conditions
12:56 AM 71.1 °F 50.0 °F 47% 29.79 in 10.0 mi Calm Calm - N/A   Clear
1:56 AM 69.1 °F 48.9 °F 49% 29.81 in 10.0 mi Variable 3.5 mph - N/A   Clear
2:56 AM 64.9 °F 46.0 °F 50% 29.81 in 10.0 mi Calm Calm - N/A   Clear
3:56 AM 60.1 °F 46.0 °F 60% 29.83 in 10.0 mi Calm Calm - N/A   Clear
4:56 AM 57.9 °F 46.0 °F 65% 29.83 in 10.0 mi Calm Calm - N/A   Partly Cloudy
5:56 AM 57.9 °F 45.0 °F 62% 29.86 in 10.0 mi West 4.6 mph - N/A   Clear
6:56 AM 57.0 °F 44.1 °F 62% 29.89 in 10.0 mi WNW 5.8 mph - N/A   Clear
7:56 AM 59.0 °F 43.0 °F 55% 29.92 in 10.0 mi NW 6.9 mph - N/A   Clear
8:56 AM 60.1 °F 39.0 °F 46% 29.94 in 10.0 mi WNW 10.4 mph 17.3 mph N/A   Clear
9:56 AM 60.1 °F 37.9 °F 44% 29.96 in 10.0 mi WNW 10.4 mph 18.4 mph N/A   Clear
10:56 AM 63.0 °F 37.0 °F 38% 29.97 in 10.0 mi NNW 8.1 mph - N/A   Clear
11:56 AM 63.0 °F 34.0 °F 34% 29.97 in 10.0 mi West 8.1 mph - N/A   Clear
12:56 PM 64.9 °F 32.0 °F 29% 29.97 in 10.0 mi West 9.2 mph - N/A   Clear
1:56 PM 66.9 °F 32.0 °F 27% 29.96 in 10.0 mi NW 9.2 mph 16.1 mph N/A   Unknown
2:56 PM 66.9 °F 33.1 °F 28% 29.96 in 10.0 mi Variable 5.8 mph - N/A   Clear
3:56 PM 69.1 °F 32.0 °F 25% 29.95 in 10.0 mi NW 8.1 mph - N/A   Clear
4:56 PM 69.1 °F 30.9 °F 24% 29.96 in 10.0 mi North 5.8 mph - N/A   Clear
5:56 PM 68.0 °F 28.9 °F 23% 29.96 in 10.0 mi West 5.8 mph - N/A   Clear
6:56 PM 66.0 °F 28.0 °F 24% 29.98 in 10.0 mi NW 4.6 mph - N/A   Clear
7:56 PM 57.9 °F 35.1 °F 42% 30.01 in 10.0 mi NNW 3.5 mph - N/A   Clear
8:56 PM 60.1 °F 30.9 °F 33% 30.04 in 10.0 mi North 5.8 mph - N/A   Clear
9:56 PM 57.9 °F 28.9 °F 33% 30.06 in 10.0 mi Variable 6.9 mph - N/A   Clear
10:56 PM 55.9 °F 28.0 °F 34% 30.07 in 10.0 mi Variable 6.9 mph - N/A   Clear
11:56 PM 55.0 °F 27.0 °F 34% 30.07 in 10.0 mi North 8.1 mph - N/A   Clear